Flood From: 24-02-2018 06:00 Until: 25-02-2018 06:00 warning for: Flood Level: Yellow info button

Although rather usual in this region, locally or potentially dangerous phenomena are expected. (such as local winds, summer thunderstorms, rising streams or high waves) Be aware and pay attention to the latest weather updates, especially if you carry out activities exposed to weather or close to a stream or shoreline. 


Meteo18 Weather Cam more information Meteo18 Weather Cam


Thunder radar more information blitzortung!


Rain radar more information rain snow radar


Visit our other weather sites:

Template documentation
and downloads

And another site



Weather Underground History page Text

Daily Summary for June 4, 2016 Units:  Metric    English   Both
« Previous Day
Next Day »
Daily Weekly Monthly Yearly Custom
  High: Low: Average:
Temperature: -17.8 °C -11.2 °C -10.1 °C
Dew Point: -17.8 °C -11.5 °C -10.6 °C
Humidity: Humidity % 84 % 93 %
Wind Speed: 0 km/h 0 km/h 1.3 km/h
Wind Gust: 0 km/h - -
Wind:- - NE
Pressure: 0 hPa 34303.6 hPa -
Precipitation: 0 mm    
Historical Graphs
 
 
Tabular Data for June 4, 2016
Time Temperature Dew Point Pressure Wind Wind Speed Wind Gust Humidity Rainfall Rate (Hourly)
-17.8 °C -17.8 °C 0 hPa Calm     Humidity % 0 mm
00:02 -11.2 °C -11.4 °C 34327.3 hPa Calm   2.6 km/h 97 % 0 mm
00:07 -11.2 °C -11.4 °C 34327.3 hPa Calm   2.6 km/h 97 % 0 mm
00:12 -11.1 °C -11.4 °C 34327.3 hPa Calm   2.6 km/h 97 % 0 mm
00:17 -11.2 °C -11.4 °C 34327.3 hPa Calm   2.6 km/h 97 % 0 mm
00:22 -11.1 °C -11.4 °C 34327.3 hPa Calm   2.6 km/h 97 % 0 mm
00:27 -11.2 °C -11.4 °C 34327.3 hPa NE 2.6 km/h 2.6 km/h 97 % 0 mm
00:32 -11.1 °C -11.4 °C 34327.3 hPa NE 2.6 km/h 2.6 km/h 97 % 0 mm
00:37 -11.2 °C -11.4 °C 34327.3 hPa Calm   2.6 km/h 97 % 0 mm
00:42 -11.1 °C -11.4 °C 34327.3 hPa NNE 2.6 km/h 5.1 km/h 97 % 0 mm
00:47 -11.1 °C -11.4 °C 34327.3 hPa Calm   5.1 km/h 97 % 0 mm
00:52 -11.1 °C -11.4 °C 34327.3 hPa Calm   5.1 km/h 97 % 0 mm
00:57 -11.2 °C -11.4 °C 34327.3 hPa Calm   7.7 km/h 97 % 0 mm
01:02 -11.2 °C -11.4 °C 34313.7 hPa Calm   7.7 km/h 97 % 0 mm
01:07 -11.2 °C -11.4 °C 34313.7 hPa Calm   5.1 km/h 97 % 0 mm
01:17 -11.2 °C -11.4 °C 34313.7 hPa Calm   7.7 km/h 97 % 0 mm
01:22 -11.2 °C -11.4 °C 34313.7 hPa Calm   7.7 km/h 97 % 0 mm
01:32 -11.2 °C -11.4 °C 34313.7 hPa Calm   5.1 km/h 97 % 0 mm
01:37 -11.2 °C -11.4 °C 34313.7 hPa Calm   5.1 km/h 97 % 0 mm
01:47 -11.2 °C -11.4 °C 34313.7 hPa Calm   5.1 km/h 97 % 0 mm
01:57 -11.2 °C -11.4 °C 34313.7 hPa Calm   5.1 km/h 97 % 0 mm
02:02 -11.2 °C -11.4 °C 34313.7 hPa Calm   7.7 km/h 97 % 0 mm
02:07 -11.2 °C -11.4 °C 34313.7 hPa Calm   7.7 km/h 97 % 0 mm
02:17 -11.2 °C -11.4 °C 34313.7 hPa Calm   2.6 km/h 97 % 0 mm
02:22 -11.2 °C -11.4 °C 34313.7 hPa Calm     97 % 0 mm
02:27 -11.2 °C -11.4 °C 34313.7 hPa Calm     97 % 0 mm
02:32 -11.2 °C -11.4 °C 34313.7 hPa Calm     97 % 0 mm
02:37 -11.2 °C -11.4 °C 34313.7 hPa Calm     97 % 0 mm
02:42 -11.2 °C -11.4 °C 34313.7 hPa Calm     97 % 0 mm
02:47 -11.2 °C -11.4 °C 34313.7 hPa Calm     97 % 0 mm
02:52 -11.2 °C -11.4 °C 34313.7 hPa Calm     97 % 0 mm
02:57 -11.2 °C -11.4 °C 34313.7 hPa Calm     97 % 0 mm
03:02 -11.2 °C -11.4 °C 34313.7 hPa Calm     97 % 0 mm
03:07 -11.2 °C -11.4 °C 34313.7 hPa Calm     97 % 0 mm
03:12 -11.2 °C -11.4 °C 34313.7 hPa Calm     97 % 0 mm
03:17 -11.2 °C -11.4 °C 34313.7 hPa NE 2.6 km/h 5.1 km/h 97 % 0 mm
03:22 -11.2 °C -11.4 °C 34313.7 hPa Calm   5.1 km/h 97 % 0 mm
03:27 -11.2 °C -11.4 °C 34313.7 hPa Calm   5.1 km/h 97 % 0 mm
03:32 -11.2 °C -11.5 °C 34313.7 hPa ESE 2.6 km/h 5.1 km/h 97 % 0 mm
03:42 -11.2 °C -11.5 °C 34313.7 hPa Calm   5.1 km/h 97 % 0 mm
03:47 -11.2 °C -11.4 °C 34313.7 hPa NNE 5.1 km/h 5.1 km/h 97 % 0 mm
03:52 -11.2 °C -11.5 °C 34313.7 hPa Calm   7.7 km/h 97 % 0 mm
03:57 -11.2 °C -11.5 °C 34313.7 hPa Calm   7.7 km/h 97 % 0 mm
04:02 -11.2 °C -11.4 °C 34303.6 hPa Calm   7.7 km/h 97 % 0 mm
04:12 -11.2 °C -11.5 °C 34303.6 hPa Calm   5.1 km/h 97 % 0 mm
04:17 -11.2 °C -11.5 °C 34303.6 hPa Calm   5.1 km/h 97 % 0 mm
04:22 -11.2 °C -11.5 °C 34303.6 hPa Calm   5.1 km/h 97 % 0 mm
04:27 -11.2 °C -11.5 °C 34303.6 hPa Calm   5.1 km/h 97 % 0 mm
04:32 -11.2 °C -11.5 °C 34303.6 hPa Calm   5.1 km/h 97 % 0 mm
04:37 -11.2 °C -11.5 °C 34303.6 hPa Calm   2.6 km/h 97 % 0 mm
04:42 -11.2 °C -11.5 °C 34303.6 hPa Calm   2.6 km/h 97 % 0 mm
04:47 -11.2 °C -11.4 °C 34303.6 hPa Calm     98 % 0 mm
04:52 -11.2 °C -11.4 °C 34303.6 hPa Calm     98 % 0 mm
04:57 -11.2 °C -11.4 °C 34303.6 hPa Calm     98 % 0 mm
05:02 -11.2 °C -11.3 °C 34303.6 hPa Calm     98 % 0 mm
05:12 -11.2 °C -11.3 °C 34303.6 hPa Calm     98 % 0 mm
05:17 -11.2 °C -11.4 °C 34303.6 hPa Calm   2.6 km/h 97 % 0 mm
05:22 -11.2 °C -11.4 °C 34303.6 hPa Calm   2.6 km/h 97 % 0 mm
05:27 -11.2 °C -11.5 °C 34303.6 hPa Calm   2.6 km/h 97 % 0 mm
05:32 -11.2 °C -11.5 °C 34303.6 hPa Calm   2.6 km/h 97 % 0 mm
05:37 -11.2 °C -11.5 °C 34303.6 hPa Calm   2.6 km/h 97 % 0 mm
05:42 -11.2 °C -11.5 °C 34303.6 hPa Calm   2.6 km/h 97 % 0 mm
05:47 -11.2 °C -11.4 °C 34303.6 hPa Calm   2.6 km/h 98 % 0 mm
05:52 -11.2 °C -11.3 °C 34303.6 hPa Calm     98 % 0 mm
05:57 -11.2 °C -11.3 °C 34303.6 hPa Calm     98 % 0 mm
06:02 -11.2 °C -11.3 °C 34303.6 hPa Calm     98 % 0 mm
06:07 -11.2 °C -11.3 °C 34303.6 hPa Calm     98 % 0 mm
06:12 -11.2 °C -11.3 °C 34303.6 hPa Calm     98 % 0 mm
06:17 -11.2 °C -11.4 °C 34303.6 hPa Calm   5.1 km/h 97 % 0 mm
06:22 -11.1 °C -11.4 °C 34303.6 hPa Calm   5.1 km/h 97 % 0 mm
06:32 -11.1 °C -11.4 °C 34303.6 hPa Calm   5.1 km/h 97 % 0 mm
06:37 -11.1 °C -11.2 °C 34303.6 hPa Calm   5.1 km/h 98 % 0 mm
06:42 -11.1 °C -11.2 °C 34303.6 hPa Calm   5.1 km/h 98 % 0 mm
06:52 -11.1 °C -11.3 °C 34303.6 hPa NE 2.6 km/h 5.1 km/h 97 % 0 mm
06:57 -11.1 °C -11.3 °C 34303.6 hPa NE 2.6 km/h 5.1 km/h 97 % 0 mm
07:02 -11 °C -11.3 °C 34303.6 hPa ESE 2.6 km/h 5.1 km/h 97 % 0 mm
07:07 -11 °C -11.3 °C 34303.6 hPa Calm   5.1 km/h 97 % 0 mm
07:17 -11 °C -11.3 °C 34313.7 hPa Calm   5.1 km/h 97 % 0 mm
07:22 -11 °C -11.3 °C 34313.7 hPa Calm   7.7 km/h 97 % 0 mm
07:32 -10.9 °C -11.2 °C 34313.7 hPa NE 2.6 km/h 5.1 km/h 97 % 0 mm
07:37 -10.9 °C -11.2 °C 34313.7 hPa Calm   5.1 km/h 97 % 0 mm
07:42 -10.9 °C -11.2 °C 34313.7 hPa Calm   7.7 km/h 97 % 0 mm
07:47 -10.9 °C -11.2 °C 34313.7 hPa Calm   10.3 km/h 97 % 0 mm
07:52 -10.9 °C -11.2 °C 34313.7 hPa NE 2.6 km/h 10.3 km/h 97 % 0 mm
07:57 -10.9 °C -11.2 °C 34313.7 hPa Calm   10.3 km/h 97 % 0 mm
08:02 -10.9 °C -11.2 °C 34313.7 hPa East 2.6 km/h 7.7 km/h 97 % 0 mm
08:07 -10.8 °C -11.1 °C 34313.7 hPa Calm   7.7 km/h 97 % 0 mm
08:12 -10.8 °C -11.1 °C 34313.7 hPa NE 2.6 km/h 7.7 km/h 97 % 0 mm
08:17 -10.8 °C -11.1 °C 34313.7 hPa NNE 5.1 km/h 7.7 km/h 96 % 0 mm
08:27 -10.7 °C -11.1 °C 34327.3 hPa Calm   7.7 km/h 96 % 0 mm
08:32 -10.7 °C -11 °C 34327.3 hPa Calm   7.7 km/h 96 % 0 mm
08:37 -10.7 °C -11 °C 34327.3 hPa Calm   7.7 km/h 96 % 0 mm
08:42 -10.6 °C -10.9 °C 34327.3 hPa Calm   2.6 km/h 96 % 0 mm
08:47 -10.6 °C -10.9 °C 34327.3 hPa Calm   2.6 km/h 96 % 0 mm
08:52 -10.6 °C -11 °C 34327.3 hPa NNE 2.6 km/h 7.7 km/h 95 % 0 mm
08:57 -10.5 °C -10.9 °C 34327.3 hPa NNE 2.6 km/h 7.7 km/h 95 % 0 mm
09:02 -10.5 °C -10.9 °C 34327.3 hPa NE 7.7 km/h 7.7 km/h 95 % 0 mm
09:07 -10.4 °C -10.9 °C 34327.3 hPa ENE 2.6 km/h 7.7 km/h 95 % 0 mm
09:12 -10.4 °C -10.9 °C 34327.3 hPa Calm   7.7 km/h 95 % 0 mm
09:17 -10.4 °C -10.9 °C 34327.3 hPa Calm   7.7 km/h 95 % 0 mm
09:22 -10.4 °C -10.9 °C 34327.3 hPa NNE 5.1 km/h 7.7 km/h 95 % 0 mm
09:27 -10.4 °C -10.9 °C 34327.3 hPa NNE 2.6 km/h 7.7 km/h 94 % 0 mm
09:32 -10.4 °C -10.9 °C 34327.3 hPa ENE 2.6 km/h 7.7 km/h 95 % 0 mm
09:37 -10.4 °C -10.9 °C 34327.3 hPa Calm   7.7 km/h 95 % 0 mm
09:42 -10.4 °C -10.9 °C 34327.3 hPa NE 5.1 km/h 7.7 km/h 94 % 0 mm
09:47 -10.3 °C -10.8 °C 34327.3 hPa North 2.6 km/h 7.7 km/h 95 % 0 mm
09:52 -10.3 °C -10.8 °C 34327.3 hPa NE 7.7 km/h 7.7 km/h 94 % 0 mm
09:57 -10.2 °C -10.7 °C 34327.3 hPa NE 2.6 km/h 10.3 km/h 94 % 0 mm
10:02 -10.2 °C -10.7 °C 34337.4 hPa Calm   10.3 km/h 94 % 0 mm
10:07 -10.1 °C -10.6 °C 34337.4 hPa North 2.6 km/h 10.3 km/h 94 % 0 mm
10:12 -10.1 °C -10.7 °C 34337.4 hPa NE 2.6 km/h 7.7 km/h 93 % 0 mm
10:17 -9.9 °C -10.6 °C 34337.4 hPa Calm   7.7 km/h 93 % 0 mm
10:22 -9.9 °C -10.5 °C 34337.4 hPa Calm   7.7 km/h 93 % 0 mm
10:27 -9.8 °C -10.6 °C 34337.4 hPa NE 5.1 km/h 7.7 km/h 92 % 0 mm
10:32 -9.8 °C -10.6 °C 34337.4 hPa Calm   7.7 km/h 92 % 0 mm
10:37 -9.8 °C -10.6 °C 34337.4 hPa Calm   7.7 km/h 92 % 0 mm
10:42 -9.8 °C -10.6 °C 34337.4 hPa Calm   7.7 km/h 91 % 0 mm
10:47 -9.8 °C -10.6 °C 34337.4 hPa NNE 2.6 km/h 5.1 km/h 91 % 0 mm
10:52 -9.8 °C -10.5 °C 34337.4 hPa Calm   7.7 km/h 92 % 0 mm
10:57 -9.8 °C -10.6 °C 34337.4 hPa NE 5.1 km/h 7.7 km/h 91 % 0 mm
11:07 -9.8 °C -10.6 °C 34337.4 hPa ENE 2.6 km/h 10.3 km/h 91 % 0 mm
11:12 -9.8 °C -10.6 °C 34347.6 hPa Calm   7.7 km/h 92 % 0 mm
11:17 -9.9 °C -10.6 °C 34347.6 hPa Calm   10.3 km/h 92 % 0 mm
11:22 -9.8 °C -10.6 °C 34347.6 hPa NE 2.6 km/h 10.3 km/h 92 % 0 mm
11:27 -9.8 °C -10.6 °C 34347.6 hPa Calm   10.3 km/h 92 % 0 mm
11:37 -9.8 °C -10.6 °C 34347.6 hPa Calm   10.3 km/h 92 % 0 mm
11:42 -9.9 °C -10.5 °C 34347.6 hPa East 2.6 km/h 10.3 km/h 93 % 0 mm
11:47 -9.9 °C -10.5 °C 34347.6 hPa Calm   10.3 km/h 93 % 0 mm
11:52 -9.9 °C -10.5 °C 34347.6 hPa NE 2.6 km/h 7.7 km/h 93 % 0 mm
11:57 -9.8 °C -10.4 °C 34347.6 hPa NE 2.6 km/h 7.7 km/h 93 % 0 mm
12:02 -9.7 °C -10.3 °C 34347.6 hPa Calm   7.7 km/h 93 % 0 mm
12:07 -9.6 °C -10.3 °C 34347.6 hPa Calm   7.7 km/h 92 % 0 mm
12:12 -9.6 °C -10.4 °C 34347.6 hPa Calm   7.7 km/h 91 % 0 mm
12:17 -9.6 °C -10.4 °C 34347.6 hPa Calm   5.1 km/h 90 % 0 mm
12:22 -9.5 °C -10.4 °C 34347.6 hPa Calm   5.1 km/h 90 % 0 mm
12:32 -9.3 °C -10.3 °C 34347.6 hPa Calm   2.6 km/h 89 % 0 mm
12:37 -9.3 °C -10.3 °C 34347.6 hPa SE 2.6 km/h 5.1 km/h 89 % 0 mm
12:42 -9.2 °C -10.2 °C 34347.6 hPa Calm   10.3 km/h 89 % 0 mm
12:47 -9.1 °C -10.1 °C 34347.6 hPa NE 2.6 km/h 10.3 km/h 89 % 0 mm
12:52 -8.9 °C -10.2 °C 34347.6 hPa Calm   10.3 km/h 87 % 0 mm
12:57 -8.8 °C -10.2 °C 34347.6 hPa Calm   7.7 km/h 85 % 0 mm
13:02 -8.8 °C -10 °C 34347.6 hPa Calm   10.3 km/h 87 % 0 mm
13:07 -8.8 °C -10 °C 34347.6 hPa Calm   10.3 km/h 87 % 0 mm
13:12 -8.8 °C -10.1 °C 34347.6 hPa NE 2.6 km/h 10.3 km/h 86 % 0 mm
13:17 -8.8 °C -9.9 °C 34347.6 hPa NE 7.7 km/h 12.9 km/h 88 % 0 mm
13:22 -8.9 °C -10 °C 34347.6 hPa NNE 7.7 km/h 12.9 km/h 88 % 0 mm
13:27 -8.9 °C -10.2 °C 34347.6 hPa Calm   10.3 km/h 87 % 0 mm
13:32 -8.9 °C -10.2 °C 34347.6 hPa NE 2.6 km/h 10.3 km/h 87 % 0 mm
13:37 -8.9 °C -10.1 °C 34347.6 hPa Calm   7.7 km/h 88 % 0 mm
13:42 -8.9 °C -10.3 °C 34347.6 hPa NE 2.6 km/h 7.7 km/h 85 % 0 mm
13:52 -8.9 °C -10 °C 34347.6 hPa Calm   5.1 km/h 88 % 0 mm
13:57 -8.9 °C -9.9 °C 34347.6 hPa Calm   2.6 km/h 89 % 0 mm
14:02 -8.9 °C -10.2 °C 34347.6 hPa Calm   2.6 km/h 87 % 0 mm
14:07 -8.9 °C -9.9 °C 34347.6 hPa NNE 2.6 km/h 5.1 km/h 89 % 0 mm
14:12 -8.9 °C -10.1 °C 34347.6 hPa Calm   5.1 km/h 87 % 0 mm
14:17 -8.8 °C -10.1 °C 34347.6 hPa Calm   5.1 km/h 87 % 0 mm
14:27 -8.5 °C -9.9 °C 34347.6 hPa Calm   2.6 km/h 85 % 0 mm
14:32 -8.4 °C -9.7 °C 34347.6 hPa Calm   2.6 km/h 86 % 0 mm
14:37 -8.4 °C -9.8 °C 34347.6 hPa NNE 7.7 km/h 10.3 km/h 85 % 0 mm
14:42 -8.4 °C -9.6 °C 34347.6 hPa NE 2.6 km/h 10.3 km/h 87 % 0 mm
14:47 -8.3 °C -9.7 °C 34347.6 hPa NE 2.6 km/h 10.3 km/h 86 % 0 mm
14:52 -8.2 °C -9.6 °C 34347.6 hPa NE 10.3 km/h 10.3 km/h 86 % 0 mm
14:57 -8.1 °C -9.3 °C 34347.6 hPa NE 10.3 km/h 10.3 km/h 87 % 0 mm
15:07 -8.1 °C -9.6 °C 34347.6 hPa NE 5.1 km/h 15.6 km/h 84 % 0 mm
15:12 -8.2 °C -9.6 °C 34347.6 hPa Calm   15.6 km/h 85 % 0 mm
15:17 -8.2 °C -9.7 °C 34347.6 hPa Calm   10.3 km/h 84 % 0 mm
15:22 -8.4 °C -9.9 °C 34347.6 hPa Calm   10.3 km/h 84 % 0 mm
15:27 -8.4 °C -9.8 °C 34347.6 hPa Calm   2.6 km/h 85 % 0 mm
15:32 -8.6 °C -9.8 °C 34347.6 hPa Calm   5.1 km/h 87 % 0 mm
15:37 -8.6 °C -9.8 °C 34347.6 hPa East 2.6 km/h 5.1 km/h 87 % 0 mm
15:42 -8.7 °C -9.8 °C 34347.6 hPa ESE 2.6 km/h 5.1 km/h 88 % 0 mm
15:47 -8.8 °C -9.9 °C 34347.6 hPa NE 2.6 km/h 7.7 km/h 88 % 0 mm
15:52 -8.8 °C -9.9 °C 34347.6 hPa Calm   7.7 km/h 88 % 0 mm
15:57 -8.9 °C -9.9 °C 34347.6 hPa NNE 7.7 km/h 7.7 km/h 89 % 0 mm
16:02 -9.1 °C -9.9 °C 34347.6 hPa NE 5.1 km/h 12.9 km/h 90 % 0 mm
16:07 -9.1 °C -9.9 °C 34347.6 hPa NNE 2.6 km/h 12.9 km/h 91 % 0 mm
16:12 -9.2 °C -10 °C 34347.6 hPa Calm   12.9 km/h 91 % 0 mm
16:17 -9.1 °C -9.8 °C 34347.6 hPa NE 2.6 km/h 12.9 km/h 92 % 0 mm
16:22 -9.1 °C -9.9 °C 34347.6 hPa NE 2.6 km/h 10.3 km/h 91 % 0 mm
16:27 -9.1 °C -9.8 °C 34347.6 hPa Calm   10.3 km/h 92 % 0 mm
16:32 -9.1 °C -9.9 °C 34347.6 hPa Calm   10.3 km/h 91 % 0 mm
16:37 -9 °C -9.8 °C 34347.6 hPa Calm   10.3 km/h 91 % 0 mm
16:42 -9 °C -9.9 °C 34347.6 hPa Calm   10.3 km/h 90 % 0 mm
16:47 -8.9 °C -9.8 °C 34347.6 hPa East 2.6 km/h 5.1 km/h 90 % 0 mm
16:52 -9 °C -9.9 °C 34347.6 hPa NE 2.6 km/h 5.1 km/h 90 % 0 mm
16:57 -9.1 °C -9.9 °C 34347.6 hPa Calm   5.1 km/h 90 % 0 mm
17:02 -9.1 °C -9.9 °C 34347.6 hPa NNE 2.6 km/h 7.7 km/h 91 % 0 mm
17:07 -9.1 °C -9.9 °C 34347.6 hPa Calm   7.7 km/h 91 % 0 mm
17:12 -9.1 °C -9.9 °C 34347.6 hPa NE 2.6 km/h 7.7 km/h 91 % 0 mm
17:17 -9.1 °C -9.9 °C 34347.6 hPa ESE 5.1 km/h 10.3 km/h 91 % 0 mm
17:22 -8.9 °C -9.7 °C 34347.6 hPa NNE 5.1 km/h 10.3 km/h 91 % 0 mm
17:27 -8.8 °C -9.7 °C 34347.6 hPa Calm   10.3 km/h 90 % 0 mm
17:32 -8.9 °C -9.8 °C 34347.6 hPa NE 5.1 km/h 12.9 km/h 90 % 0 mm
17:37 -8.9 °C -9.8 °C 34347.6 hPa Calm   12.9 km/h 90 % 0 mm
17:42 -8.9 °C -9.8 °C 34347.6 hPa ENE 2.6 km/h 12.9 km/h 90 % 0 mm
17:52 -9.1 °C -9.9 °C 34347.6 hPa North 5.1 km/h 10.3 km/h 90 % 0 mm
17:57 -9.1 °C -9.9 °C 34347.6 hPa NE 5.1 km/h 10.3 km/h 91 % 0 mm
18:02 -9.2 °C -10 °C 34347.6 hPa Calm   10.3 km/h 91 % 0 mm
18:07 -9.2 °C -10.1 °C 34347.6 hPa NE 5.1 km/h 10.3 km/h 91 % 0 mm
18:12 -9.3 °C -10 °C 34347.6 hPa NE 12.9 km/h 12.9 km/h 92 % 0 mm
18:17 -9.3 °C -10 °C 34347.6 hPa NE 2.6 km/h 12.9 km/h 92 % 0 mm
18:22 -9.1 °C -9.8 °C 34337.4 hPa Calm   12.9 km/h 92 % 0 mm
18:27 -9.1 °C -9.9 °C 34337.4 hPa NNE 5.1 km/h 12.9 km/h 91 % 0 mm
18:32 -9.1 °C -9.9 °C 34347.6 hPa NE 7.7 km/h 7.7 km/h 90 % 0 mm
18:37 -9.1 °C -10 °C 34347.6 hPa NE 5.1 km/h 12.9 km/h 90 % 0 mm
18:42 -9.2 °C -10.1 °C 34347.6 hPa NE 5.1 km/h 15.6 km/h 91 % 0 mm
18:47 -9.3 °C -10.1 °C 34347.6 hPa NE 5.1 km/h 15.6 km/h 91 % 0 mm
18:52 -9.3 °C -10.1 °C 34347.6 hPa Calm   15.6 km/h 92 % 0 mm
18:57 -9.4 °C -10.1 °C 34347.6 hPa NNE 2.6 km/h 12.9 km/h 92 % 0 mm
19:02 -9.4 °C -10 °C 34347.6 hPa NE 2.6 km/h 10.3 km/h 93 % 0 mm
19:07 -9.4 °C -10 °C 34347.6 hPa ENE 2.6 km/h 10.3 km/h 93 % 0 mm
19:12 -9.4 °C -10.1 °C 34347.6 hPa Calm   7.7 km/h 93 % 0 mm
19:17 -9.5 °C -10.1 °C 34347.6 hPa NE 2.6 km/h 7.7 km/h 93 % 0 mm
19:22 -9.5 °C -10.1 °C 34347.6 hPa NE 2.6 km/h 7.7 km/h 93 % 0 mm
19:32 -9.6 °C -10.1 °C 34347.6 hPa NE 5.1 km/h 7.7 km/h 94 % 0 mm
19:37 -9.6 °C -10.1 °C 34347.6 hPa NE 5.1 km/h 10.3 km/h 94 % 0 mm
19:42 -9.6 °C -10.2 °C 34347.6 hPa ENE 2.6 km/h 12.9 km/h 94 % 0 mm
19:47 -9.6 °C -10.2 °C 34347.6 hPa ENE 2.6 km/h 12.9 km/h 94 % 0 mm
19:52 -9.6 °C -10.2 °C 34347.6 hPa Calm   10.3 km/h 94 % 0 mm
19:57 -9.6 °C -10.2 °C 34347.6 hPa NE 2.6 km/h 10.3 km/h 94 % 0 mm
20:02 -9.6 °C -10.2 °C 34347.6 hPa NE 7.7 km/h 10.3 km/h 94 % 0 mm
20:07 -9.6 °C -10.2 °C 34347.6 hPa Calm   12.9 km/h 94 % 0 mm
20:12 -9.6 °C -10.2 °C 34347.6 hPa NE 7.7 km/h 15.6 km/h 94 % 0 mm
20:17 -9.6 °C -10.2 °C 34361.1 hPa Calm   15.6 km/h 94 % 0 mm
20:22 -9.6 °C -10.2 °C 34361.1 hPa NE 5.1 km/h 12.9 km/h 94 % 0 mm
20:32 -9.6 °C -10.2 °C 34361.1 hPa NE 5.1 km/h 12.9 km/h 94 % 0 mm
20:37 -9.6 °C -10.2 °C 34361.1 hPa NE 5.1 km/h 10.3 km/h 94 % 0 mm
20:42 -9.6 °C -10.1 °C 34361.1 hPa Calm   10.3 km/h 95 % 0 mm
20:52 -9.6 °C -10.1 °C 34371.3 hPa Calm   10.3 km/h 95 % 0 mm
20:57 -9.6 °C -10.1 °C 34371.3 hPa Calm   7.7 km/h 95 % 0 mm
21:02 -9.6 °C -10.1 °C 34371.3 hPa Calm   5.1 km/h 95 % 0 mm
21:07 -9.6 °C -10.1 °C 34384.8 hPa Calm   5.1 km/h 95 % 0 mm
21:12 -9.6 °C -10.1 °C 34384.8 hPa Calm   2.6 km/h 95 % 0 mm
21:17 -9.6 °C -10.1 °C 34384.8 hPa Calm   2.6 km/h 95 % 0 mm
21:22 -9.6 °C -10.1 °C 34384.8 hPa Calm   2.6 km/h 95 % 0 mm
21:27 -9.6 °C -10.1 °C 34384.8 hPa Calm   2.6 km/h 95 % 0 mm
21:32 -9.6 °C -10.1 °C 34384.8 hPa Calm     95 % 0 mm
21:37 -9.6 °C -10.1 °C 34384.8 hPa Calm     95 % 0 mm
21:42 -9.6 °C -10.1 °C 34384.8 hPa Calm     95 % 0 mm
21:47 -9.6 °C -10.1 °C 34384.8 hPa Calm     95 % 0 mm
21:52 -9.6 °C -10.1 °C 34384.8 hPa Calm     95 % 0 mm
21:57 -9.6 °C -10.1 °C 34395 hPa Calm     95 % 0 mm
22:02 -9.6 °C -10.1 °C 34395 hPa Calm     95 % 0 mm
22:07 -9.6 °C -10.1 °C 34395 hPa Calm     95 % 0 mm
22:12 -9.6 °C -10.1 °C 34395 hPa Calm     95 % 0 mm
22:17 -9.6 °C -10.1 °C 34405.1 hPa Calm     95 % 0 mm
22:22 -9.7 °C -10.1 °C 34405.1 hPa Calm     95 % 0 mm
22:27 -9.7 °C -10.1 °C 34405.1 hPa Calm     95 % 0 mm
22:32 -9.6 °C -9.9 °C 34405.1 hPa Calm     96 % 0 mm
22:37 -9.6 °C -10.1 °C 34405.1 hPa Calm     95 % 0 mm
22:42 -9.7 °C -10.1 °C 34405.1 hPa Calm     95 % 0 mm
22:47 -9.7 °C -10.1 °C 34405.1 hPa Calm     95 % 0 mm
22:52 -9.7 °C -10 °C 34405.1 hPa Calm     96 % 0 mm
22:57 -9.7 °C -10 °C 34405.1 hPa Calm     96 % 0 mm
23:02 -9.7 °C -10 °C 34405.1 hPa Calm     96 % 0 mm
23:07 -9.7 °C -10 °C 34405.1 hPa Calm     96 % 0 mm
23:12 -9.7 °C -10 °C 34405.1 hPa Calm     96 % 0 mm
23:17 -9.7 °C -10 °C 34405.1 hPa Calm     96 % 0 mm
23:22 -9.7 °C -10 °C 34405.1 hPa Calm     96 % 0 mm
23:27 -9.7 °C -10.1 °C 34418.7 hPa Calm     96 % 0 mm
23:32 -9.7 °C -10.1 °C 34418.7 hPa Calm     96 % 0 mm
23:37 -9.7 °C -10.1 °C 34405.1 hPa Calm     96 % 0 mm
23:42 -9.8 °C -10.1 °C 34418.7 hPa Calm     96 % 0 mm
23:47 -9.8 °C -10.1 °C 34405.1 hPa Calm     96 % 0 mm
23:52 -9.8 °C -10.1 °C 34405.1 hPa Calm     96 % 0 mm
23:57 -9.8 °C -10.1 °C 34405.1 hPa Calm     96 % 0 mm
Meteo18
Compliments of Weather Underground - 4 mb

Script developed by  Jim McMurry - jmcmurry@mwt.net Adapted for the template by  Wim van der Kuil - Leuven-Template.eu

You find our weather info also at:

European Weather Network

Weather Underground

Equipment we use:

Weather-station
Davis Vue

Weather-program
Meteobridge

Weather-server
Raspberry PI 2 B+

Provider
1 and 1

Davis Vue

Meteobridge

Raspberry PI 2 B+

1 and 1